FW2367 Chelsea MA US current weather conditions

sailwx.info

Wind from 292

Air temperature -0.0° C
Dewpoint -2.4° C

Last reported at 2019-Dec-11 19:00 UTC.
Time now 2019-Dec-11 20:10 UTC

Location: N 42°24' W 071°02'.
View on Google Maps.

See reports from other nearby stations

  
Tides and Currents Weather Stations Pressure Air Temp Water Temp Dewpoint Dewpoint Depression Visibility Wind Speed Wind Dir Waves Ship Positions
date/time (UTC)wind fromknots sea level pressurealtimeterstation pressurevisibilityair tempwater tempwave heightnotes
2019-Dec-11 19:00 292 -0.0
2019-Dec-11 18:50 292 -0.0
2019-Dec-11 18:40 270 -0.0
2019-Dec-11 18:30 292 -0.0
2019-Dec-11 18:20 296 -0.0
2019-Dec-11 18:11 292 -0.0
2019-Dec-11 18:02 292 -0.0
2019-Dec-11 17:53 247 -0.0
2019-Dec-11 17:43 216 -0.0
2019-Dec-11 17:34 288 -0.0
2019-Dec-11 17:24 284 -0.0
2019-Dec-11 17:15 285 0 -0.0
2019-Dec-11 17:06 290 2 -0.0
2019-Dec-11 16:56 283 2 -0.6
2019-Dec-11 16:47 270 -1.1
2019-Dec-11 16:37 271 3 -1.1
2019-Dec-11 16:27 292 0 -1.1
2019-Dec-11 16:18 292 1 -1.7
2019-Dec-11 16:08 292 1 -1.7
2019-Dec-11 15:58 272 0 -1.1
2019-Dec-11 15:48 292 -1.7
2019-Dec-11 15:38 292 0 -1.1
2019-Dec-11 15:29 315 0 -1.1
2019-Dec-11 15:20 294 0 -1.1
2019-Dec-11 15:10 292 -1.1
2019-Dec-11 15:00 288 3 -1.1
2019-Dec-11 14:50 273 2 -1.7
2019-Dec-11 14:40 292 1 -1.7
2019-Dec-11 14:30 292 1 -1.7
2019-Dec-11 14:20 292 1 -1.7
2019-Dec-11 14:10 292 1 -1.7
2019-Dec-11 14:01 292 1 -1.7
2019-Dec-11 13:51 292 1 -1.7
2019-Dec-11 13:41 292 2 -1.7
2019-Dec-11 13:32 292 0 -1.7
2019-Dec-11 13:23 292 0 -1.7
2019-Dec-11 13:13 292 0 -1.7
2019-Dec-11 13:04 291 0 -1.7
2019-Dec-11 12:54 292 0 -1.7
2019-Dec-11 12:44 270 -1.7
2019-Dec-11 12:35 282 -1.7
2019-Dec-11 12:25 315 0 -1.7
2019-Dec-11 12:16 315 1 -1.7
2019-Dec-11 12:06 283 1 -1.1
2019-Dec-11 11:56 281 1 -1.1
2019-Dec-11 11:46 288 2 -1.1
2019-Dec-11 11:37 180 -1.1
2019-Dec-11 11:28 270 -1.1
2019-Dec-11 11:18 270 -1.1
2019-Dec-11 11:09 270 -1.1
2019-Dec-11 11:00 315 -1.1
2019-Dec-11 10:50 270 -1.1
2019-Dec-11 10:41 256 -1.1
2019-Dec-11 10:21 238 -1.1
2019-Dec-11 10:02 250 -1.1
2019-Dec-11 09:52 272 -0.6
2019-Dec-11 09:42 268 -0.6
2019-Dec-11 09:33 313 0 -0.6
2019-Dec-11 09:23 090 -0.6
2019-Dec-11 09:14 347 -0.6
2019-Dec-11 09:05 265 0 -0.6
2019-Dec-11 08:46 279 0 -0.6
2019-Dec-11 08:36 312 1 -0.6
2019-Dec-11 08:16 284 1 -0.0
2019-Dec-11 08:07 200 0.6
2019-Dec-11 07:57 315 0.6
2019-Dec-11 07:47 291 0.6
2019-Dec-11 07:27 181 1.1
2019-Dec-11 07:18 297 1 1.7
2019-Dec-11 07:09 005 1.7
2019-Dec-11 06:59 264 0 2.2
2019-Dec-11 06:50 309 2 2.2
2019-Dec-11 06:40 002 0 2.8
2019-Dec-11 06:31 029 2.8
2019-Dec-11 06:22 270 2.8
2019-Dec-11 06:13 078 2.8
2019-Dec-11 05:53 310 0 3.3
2019-Dec-11 05:43 292 0 3.3
2019-Dec-11 05:33 292 0 3.3
2019-Dec-11 05:23 322 0 3.3
2019-Dec-11 05:14 292 1 3.3
2019-Dec-11 05:04 304 1 3.3
2019-Dec-11 04:55 315 0 3.9
2019-Dec-11 04:46 289 0 3.9
2019-Dec-11 04:36 176 3.9
2019-Dec-11 04:16 315 4.4
2019-Dec-11 04:06 237 5.0
2019-Dec-11 03:57 276 0 5.6
2019-Dec-11 03:47 135 5.6
2019-Dec-11 03:28 292 5.6
2019-Dec-11 03:18 292 5.6
2019-Dec-11 03:08 306 1 5.6
2019-Dec-11 02:58 308 2 6.1
2019-Dec-11 02:39 290 1 6.7
2019-Dec-11 02:29 282 1 6.7
2019-Dec-11 02:19 291 1 6.7
2019-Dec-11 02:09 310 3 7.2
2019-Dec-11 01:51 315 2 7.8
2019-Dec-11 01:41 310 4 7.8
2019-Dec-11 01:32 289 7.8
2019-Dec-11 01:22 293 0 8.3
2019-Dec-11 01:13 312 0 8.3
2019-Dec-11 01:03 303 3 8.3
2019-Dec-11 00:43 321 0 8.9
2019-Dec-11 00:34 299 2 9.4
2019-Dec-11 00:15 307 2 11.1
2019-Dec-11 00:05 298 5 12.2
2019-Dec-10 23:55 291 6 12.2
2019-Dec-10 23:45 300 6 12.2
2019-Dec-10 23:36 296 3 12.2
2019-Dec-10 23:17 302 5 12.2
2019-Dec-10 22:57 289 6 12.2
2019-Dec-10 22:48 264 5 12.2
2019-Dec-10 22:39 290 6 12.2
2019-Dec-10 22:30 250 5 12.8
2019-Dec-10 22:20 279 5 12.8
2019-Dec-10 22:10 301 6 12.8
2019-Dec-10 22:00 263 4 12.8
2019-Dec-10 21:50 269 3 12.8
2019-Dec-10 21:40 257 4 12.8
2019-Dec-10 21:31 286 5 12.8
2019-Dec-10 21:12 234 6 12.8
2019-Dec-10 21:02 238 6 12.8
2019-Dec-10 20:53 280 6 12.8
2019-Dec-10 20:43 277 4 12.8
2019-Dec-10 20:34 248 3 12.8
2019-Dec-10 20:25 241 5 12.8
2019-Dec-10 20:15 253 3 12.8
2019-Dec-10 20:05 284 4 12.8
2019-Dec-10 19:55 253 5 13.3
2019-Dec-10 19:45 241 4 13.3
2019-Dec-10 19:35 282 5 13.3
2019-Dec-10 19:25 292 6 13.9
2019-Dec-10 19:06 237 4 14.4
2019-Dec-10 18:57 275 4 14.4
2019-Dec-10 18:47 270 4 14.4
2019-Dec-10 18:37 292 8 14.4
2019-Dec-10 18:27 283 8 14.4
2019-Dec-10 18:18 279 7 14.4
2019-Dec-10 18:08 292 6 15.0
2019-Dec-10 17:59 289 6 15.0
2019-Dec-10 17:49 296 5 15.0
2019-Dec-10 17:40 275 5 15.0
2019-Dec-10 17:30 298 9 15.0
2019-Dec-10 17:21 278 5 15.0
2019-Dec-10 17:12 297 6 15.6
2019-Dec-10 17:03 250 6 15.6
2019-Dec-10 16:53 299 6 15.6
2019-Dec-10 16:34 256 4 15.6
2019-Dec-10 16:25 282 7 15.6
2019-Dec-10 16:16 271 5 15.6
2019-Dec-10 16:06 277 6 15.6
2019-Dec-10 15:56 247 5 15.6
2019-Dec-10 15:47 232 6 15.0
2019-Dec-10 15:38 283 6 15.0
2019-Dec-10 15:28 278 5 15.0
2019-Dec-10 15:18 235 6 15.0
2019-Dec-10 15:09 271 7 15.0
2019-Dec-10 14:59 260 5 15.0
2019-Dec-10 14:49 259 6 15.0
2019-Dec-10 14:40 230 6 15.0
2019-Dec-10 14:31 279 6 15.0
2019-Dec-10 14:21 301 7 15.0
2019-Dec-10 14:11 265 6 14.4
2019-Dec-10 14:02 232 6 14.4
2019-Dec-10 13:52 252 6 13.9
2019-Dec-10 13:43 269 4 13.9
2019-Dec-10 13:33 257 5 13.3
2019-Dec-10 13:23 241 5 13.3
2019-Dec-10 13:13 237 6 13.3
2019-Dec-10 13:03 249 4 13.3
2019-Dec-10 12:53 264 4 13.3
2019-Dec-10 12:44 247 5 13.3
2019-Dec-10 12:34 279 5 13.3
2019-Dec-10 12:25 249 6 13.3
2019-Dec-10 12:15 304 6 13.3
2019-Dec-10 12:06 303 5 13.3
2019-Dec-10 11:57 272 5 13.3
2019-Dec-10 11:48 264 3 13.3
2019-Dec-10 11:38 305 5 13.3
2019-Dec-10 11:29 299 6 13.3
2019-Dec-10 11:20 282 6 13.3
2019-Dec-10 11:10 258 6 13.3
2019-Dec-10 11:00 272 7 13.3
2019-Dec-10 10:50 281 6 13.3
2019-Dec-10 10:40 282 5 13.3
2019-Dec-10 10:31 241 5 13.3
2019-Dec-10 10:21 239 6 13.3
2019-Dec-10 10:11 266 6 13.3
2019-Dec-10 10:02 255 6 13.3
2019-Dec-10 09:52 249 5 13.3
2019-Dec-10 09:43 250 5 13.3
2019-Dec-10 09:34 292 6 13.3
2019-Dec-10 09:24 277 6 13.3
2019-Dec-10 09:15 268 5 13.3
2019-Dec-10 09:05 265 6 13.3
2019-Dec-10 08:55 266 5 13.3
2019-Dec-10 08:46 290 6 13.3
2019-Dec-10 08:37 296 6 13.3
2019-Dec-10 08:27 287 8 13.3
2019-Dec-10 08:17 257 6 13.3
2019-Dec-10 08:08 277 5 13.3
2019-Dec-10 07:59 263 6 13.3
2019-Dec-10 07:49 248 5 13.3
2019-Dec-10 07:39 252 6 13.3
2019-Dec-10 07:30 239 5 13.3
2019-Dec-10 07:20 239 5 13.3
2019-Dec-10 07:11 238 5 13.9
2019-Dec-10 07:02 233 7 13.3
2019-Dec-10 06:52 226 5 13.3
2019-Dec-10 06:43 259 6 13.9
2019-Dec-10 06:33 247 5 13.9
2019-Dec-10 06:23 238 7 13.9
2019-Dec-10 06:13 252 5 13.9
2019-Dec-10 06:04 252 6 13.9
2019-Dec-10 05:54 271 6 13.9
2019-Dec-10 05:45 266 5 13.9
2019-Dec-10 05:35 237 6 13.9
2019-Dec-10 05:26 242 5 14.4
2019-Dec-10 05:16 265 6 14.4
2019-Dec-10 05:07 274 6 14.4
2019-Dec-10 04:57 236 7 14.4
2019-Dec-10 04:48 247 6 14.4
2019-Dec-10 04:39 243 8 14.4
2019-Dec-10 04:29 244 6 14.4
2019-Dec-10 04:19 242 8 14.4
2019-Dec-10 04:09 240 10 15.0
2019-Dec-10 04:00 244 9 14.4
2019-Dec-10 03:50 253 7 14.4
2019-Dec-10 03:40 249 8 14.4
2019-Dec-10 03:31 239 9 14.4
2019-Dec-10 03:21 240 8 14.4
2019-Dec-10 03:11 230 8 13.9
2019-Dec-10 03:02 230 8 13.9
2019-Dec-10 02:52 233 6 13.9
2019-Dec-10 02:42 244 8 13.3
2019-Dec-10 02:32 233 4 13.3
2019-Dec-10 02:23 243 6 13.3
2019-Dec-10 02:14 245 9 13.3
2019-Dec-10 02:04 251 6 13.3
2019-Dec-10 01:55 245 5 13.3
2019-Dec-10 01:45 243 6 13.3
2019-Dec-10 01:36 226 4 13.3
2019-Dec-10 01:26 232 8 13.3
2019-Dec-10 01:17 241 5 13.3
2019-Dec-10 01:07 231 4 12.8
2019-Dec-10 00:58 235 4 12.8
2019-Dec-10 00:48 235 4 12.8
2019-Dec-10 00:39 244 5 12.8
2019-Dec-10 00:30 246 6 12.8
2019-Dec-10 00:20 232 5 12.8
2019-Dec-10 00:10 236 4 12.8
2019-Dec-10 00:01 247 6 12.8
2019-Dec-09 23:50 224 3 12.8
2019-Dec-09 23:41 242 3 12.8
2019-Dec-09 23:32 242 6 12.8
2019-Dec-09 23:22 240 5 12.8
2019-Dec-09 23:13 242 7 12.8
2019-Dec-09 23:04 240 4 12.8
2019-Dec-09 22:54 241 5 12.8
2019-Dec-09 22:44 256 5 12.8
2019-Dec-09 22:35 225 3 12.8
2019-Dec-09 22:25 235 6 12.8
2019-Dec-09 22:16 249 6 12.8
2019-Dec-09 22:06 229 5 13.3
2019-Dec-09 21:56 237 8 13.3
2019-Dec-09 21:46 240 7 12.8
2019-Dec-09 21:36 233 6 12.8
2019-Dec-09 21:27 238 6 12.8
2019-Dec-09 21:17 237 11 12.8
2019-Dec-09 21:07 245 7 12.8
2019-Dec-09 20:58 234 5 12.8
2019-Dec-09 20:48 227 6 12.8
2019-Dec-09 20:39 236 6 12.8
2019-Dec-09 20:29 232 7 12.2
2019-Dec-09 20:20 233 6 12.2
2019-Dec-09 20:11 230 6 12.2
2019-Dec-09 20:01 238 3 12.2